Terminal Aerodrome Forecast
Issued by NWS Green Bay, WI

Home | Current Version | Previous Version | Graphics & Text | Print | Product List | Glossary On
Versions: 1 2 3 4 5 6 7 8 9 10 11 12 13 14 15 16 17
000
FTUS43 KGRB 290300 AAB
TAFGRB
TAF AMD
KGRB 290339Z 2904/2924 25012G18KT P6SM VCSH BKN025 BKN060
     FM291400 30011KT P6SM SCT030 BKN050
     FM292200 29006KT P6SM BKN035=

USA.gov is the U.S. government's official web portal to all federal, state and local government web resources and services.